CW2274 Weather Reports


Display with metric or nautical units.
time (UTC)temp
F
wind
direction
speed
MPH
gust
MPH
rain 1hr
in
rain 24hr
in
rain mn
in
humidity
%
barometer
mb
20260906123030 77 292 0.0 2.0 0.00 0.00 0.00 55 1015.2
20260906122525 77 292 1.0 2.0 0.00 0.00 0.00 56 1015.1
20260906122020 77 292 1.0 2.0 0.00 0.00 0.00 55 1015.1
20260906121515 77 292 0.0 0.0 0.00 0.00 0.00 54 1015.0
20260906121031 78 292 0.0 1.0 0.00 0.00 0.00 54 1014.9
20260906120526 78 292 0.0 2.0 0.00 0.00 0.00 53 1014.8
20260906120037 78 292 1.0 2.0 0.00 0.00 0.00 53 1014.8
20260906115518 78 292 1.0 2.0 0.00 0.00 0.00 52 1014.7
20260906115014 79 292 0.0 3.0 0.00 0.00 0.00 52 1014.7
20260906114528 79 292 0.0 3.0 0.00 0.00 0.00 52 1014.7
20260906114024 79 292 1.0 2.0 0.00 0.00 0.00 51 1014.6
20260906113520 79 292 1.0 3.0 0.00 0.00 0.00 51 1014.6
20260906113015 79 292 1.0 3.0 0.00 0.00 0.00 50 1014.6
20260906112514 79 292 1.0 2.0 0.00 0.00 0.00 51 1014.5
20260906112029 79 292 1.0 2.0 0.00 0.00 0.00 51 1014.5
20260906111524 79 292 1.0 2.0 0.00 0.00 0.00 50 1014.5
20260906111020 79 292 1.0 2.0 0.00 0.00 0.00 51 1014.4
20260906110616 79 292 1.0 3.0 0.00 0.00 0.00 51 1014.5
20260906110038 79 292 1.0 3.0 0.00 0.00 0.00 50 1014.5
20260906105520 80 292 2.0 3.0 0.00 0.00 0.00 50 1014.5
20260906105015 80 292 2.0 3.0 0.00 0.00 0.00 50 1014.4
20260906104530 80 292 2.0 3.0 0.00 0.00 0.00 50 1014.3
20260906104029 80 292 1.0 2.0 0.00 0.00 0.00 49 1014.5
20260906103524 80 292 1.0 2.0 0.00 0.00 0.00 49 1014.5
20260906103020 79 292 1.0 3.0 0.00 0.00 0.00 50 1014.5
20260906102515 79 292 1.0 3.0 0.00 0.00 0.00 50 1014.5
20260906102030 80 292 1.0 2.0 0.00 0.00 0.00 50 1014.5
20260906101526 80 292 1.0 2.0 0.00 0.00 0.00 49 1014.5
20260906101022 80 292 1.0 2.0 0.00 0.00 0.00 48 1014.4
20260906100521 80 292 1.0 2.0 0.00 0.00 0.00 48 1014.5
20260906100028 80 292 1.0 2.0 0.00 0.00 0.00 47 1014.4
20260906095528 80 292 1.0 2.0 0.00 0.00 0.00 47 1014.4
20260906095023 80 292 1.0 2.0 0.00 0.00 0.00 47 1014.4
20260906094517 80 292 1.0 3.0 0.00 0.00 0.00 46 1014.4
20260906094012 80 292 1.0 4.0 0.00 0.00 0.00 46 1014.4
20260906093527 80 292 2.0 3.0 0.00 0.00 0.00 46 1014.4
20260906093021 80 292 2.0 3.0 0.00 0.00 0.00 45 1014.5
20260906092519 80 292 2.0 3.0 0.00 0.00 0.00 45 1014.4
20260906092014 80 292 2.0 3.0 0.00 0.00 0.00 45 1014.3
20260906091528 81 292 2.0 3.0 0.00 0.00 0.00 45 1014.4
20260906091023 81 292 1.0 3.0 0.00 0.00 0.00 44 1014.4
20260906090518 81 292 1.0 3.0 0.00 0.00 0.00 44 1014.4
20260906090044 80 292 2.0 3.0 0.00 0.00 0.00 45 1014.4
20260906085524 81 292 2.0 3.0 0.00 0.00 0.00 45 1014.4
20260906085023 81 292 1.0 3.0 0.00 0.00 0.00 44 1014.5
20260906084517 81 292 2.0 3.0 0.00 0.00 0.00 43 1014.5
20260906084032 82 292 2.0 3.0 0.00 0.00 0.00 42 1014.6
20260906083523 82 292 1.0 3.0 0.00 0.00 0.00 42 1014.4
20260906083017 82 292 2.0 3.0 0.00 0.00 0.00 42 1014.5
20260906082512 82 292 2.0 3.0 0.00 0.00 0.00 42 1014.4
20260906082026 83 292 2.0 3.0 0.00 0.00 0.00 41 1014.5
20260906081520 83 292 2.0 3.0 0.00 0.00 0.00 41 1014.5
20260906081019 83 292 2.0 3.0 0.00 0.00 0.00 41 1014.6
20260906080514 83 292 1.0 3.0 0.00 0.00 0.00 41 1014.6
20260906080040 83 292 2.0 3.0 0.00 0.00 0.00 41 1014.7
20260906075520 84 291 1.0 4.0 0.00 0.00 0.00 40 1014.6
20260906075015 84 291 2.0 6.0 0.00 0.00 0.00 40 1014.6
20260906074530 84 290 2.0 6.0 0.00 0.00 0.00 40 1014.6
20260906074024 84 290 3.0 4.0 0.00 0.00 0.00 40 1014.8
20260906073523 85 290 2.0 4.0 0.00 0.00 0.00 39 1014.8
20260906073017 85 290 2.0 7.0 0.00 0.00 0.00 39 1014.8
20260906072511 85 291 3.0 7.0 0.00 0.00 0.00 39 1014.7
20260906072026 85 292 2.0 4.0 0.00 0.00 0.00 39 1014.8
20260906071520 85 292 3.0 4.0 0.00 0.00 0.00 40 1014.8
20260906071015 85 293 2.0 5.0 0.00 0.00 0.00 39 1014.8
20260906070529 85 292 3.0 7.0 0.00 0.00 0.00 39 1014.8
20260906070036 85 292 3.0 7.0 0.00 0.00 0.00 40 1014.9
20260906065521 85 287 3.0 7.0 0.00 0.00 0.00 39 1014.7
20260906065016 85 279 4.0 7.0 0.00 0.00 0.00 40 1014.8
20260906064531 85 286 4.0 7.0 0.00 0.00 0.00 40 1014.8
20260906064025 85 280 4.0 7.0 0.00 0.00 0.00 40 1014.9
20260906063519 85 283 4.0 7.0 0.00 0.00 0.00 40 1014.9
20260906063013 85 288 3.0 6.0 0.00 0.00 0.00 39 1014.9
20260906062528 85 288 3.0 7.0 0.00 0.00 0.00 39 1014.9
20260906062026 86 288 3.0 7.0 0.00 0.00 0.00 39 1014.9
20260906061520 86 292 3.0 5.0 0.00 0.00 0.00 39 1014.9
20260906061015 86 294 3.0 7.0 0.00 0.00 0.00 39 1014.9
20260906060529 85 281 3.0 7.0 0.00 0.00 0.00 39 1014.9
20260906060036 86 277 4.0 7.0 0.00 0.00 0.00 39 1014.9
20260906055515 86 291 3.0 7.0 0.00 0.00 0.00 40 1015.0
20260906055029 86 294 2.0 5.0 0.00 0.00 0.00 40 1015.0
20260906054524 86 294 2.0 5.0 0.00 0.00 0.00 40 1015.0
20260906054022 86 295 3.0 5.0 0.00 0.00 0.00 40 1015.1
20260906053515 86 296 2.0 5.0 0.00 0.00 0.00 40 1015.2
20260906053029 86 296 2.0 5.0 0.00 0.00 0.00 40 1015.2
20260906052523 86 295 2.0 5.0 0.00 0.00 0.00 40 1015.2
20260906052017 86 294 2.0 5.0 0.00 0.00 0.00 40 1015.2
20260906051531 86 292 3.0 5.0 0.00 0.00 0.00 40 1015.3
20260906051025 87 293 2.0 5.0 0.00 0.00 0.00 40 1015.3
20260906050523 87 294 3.0 5.0 0.00 0.00 0.00 40 1015.3
20260906050030 87 295 3.0 4.0 0.00 0.00 0.00 40 1015.4
20260906045529 87 296 3.0 4.0 0.00 0.00 0.00 40 1015.3
20260906045024 87 297 2.0 5.0 0.00 0.00 0.00 40 1015.3
20260906044518 87 297 3.0 5.0 0.00 0.00 0.00 41 1015.4
20260906044013 87 323 3.0 5.0 0.00 0.00 0.00 42 1015.3
20260906043528 87 323 1.0 5.0 0.00 0.00 0.00 42 1015.2
20260906043023 87 323 2.0 5.0 0.00 0.00 0.00 42 1015.3
20260906042522 86 325 3.0 5.0 0.00 0.00 0.00 43 1015.3
20260906042016 86 326 2.0 5.0 0.00 0.00 0.00 43 1015.2
20260906041529 86 326 2.0 5.0 0.00 0.00 0.00 44 1015.2
20260906041023 87 326 2.0 4.0 0.00 0.00 0.00 43 1015.1
20260906040518 87 326 3.0 4.0 0.00 0.00 0.00 42 1015.1
20260906040045 87 326 2.0 4.0 0.00 0.00 0.00 42 1015.1
20260906035525 87 326 1.0 3.0 0.00 0.00 0.00 42 1015.1
20260906035023 87 326 2.0 4.0 0.00 0.00 0.00 42 1015.1
20260906034517 87 326 0.0 1.0 0.00 0.00 0.00 42 1015.1
20260906034031 87 326 0.0 2.0 0.00 0.00 0.00 41 1015.1
20260906033525 88 326 0.0 2.0 0.00 0.00 0.00 41 1015.0
20260906033019 88 326 1.0 3.0 0.00 0.00 0.00 40 1014.8
20260906032533 89 326 1.0 3.0 0.00 0.00 0.00 39 1014.8
20260906032027 89 326 1.0 3.0 0.00 0.00 0.00 39 1014.7
20260906031521 89 326 1.0 3.0 0.00 0.00 0.00 39 1014.8
20260906031020 89 326 1.0 3.0 0.00 0.00 0.00 38 1014.6
20260906030514 89 326 1.0 2.0 0.00 0.00 0.00 38 1014.6
20260906030041 90 326 1.0 3.0 0.00 0.00 0.00 38 1014.5
20260906025520 90 326 2.0 3.0 0.00 0.00 0.00 37 1014.4
20260906025014 90 325 2.0 3.0 0.00 0.00 0.00 37 1014.2
20260906024529 90 326 1.0 3.0 0.00 0.00 0.00 37 1014.3
20260906024023 90 326 2.0 4.0 0.00 0.00 0.00 37 1014.3
20260906023521 90 326 1.0 2.0 0.00 0.00 0.00 36 1014.3
20260906023016 90 326 1.0 2.0 0.00 0.00 0.00 36 1014.2
20260906022531 90 327 1.0 3.0 0.00 0.00 0.00 36 1014.1
20260906022026 90 327 1.0 3.0 0.00 0.00 0.00 36 1014.0
20260906021520 91 327 1.0 2.0 0.00 0.00 0.00 35 1014.0
20260906021015 90 327 1.0 3.0 0.00 0.00 0.00 35 1014.1
20260906020529 91 327 1.0 3.0 0.00 0.00 0.00 35 1014.0
20260906020035 91 327 1.0 4.0 0.00 0.00 0.00 35 1014.0
20260906015520 91 347 0.0 4.0 0.00 0.00 0.00 34 1014.0
20260906015014 92 348 1.0 4.0 0.00 0.00 0.00 34 1014.1
20260906014529 92 350 1.0 6.0 0.00 0.00 0.00 34 1014.0
20260906014023 92 351 2.0 6.0 0.00 0.00 0.00 33 1014.0
20260906013518 92 339 2.0 5.0 0.00 0.00 0.00 34 1014.0
20260906013032 92 329 2.0 5.0 0.00 0.00 0.00 34 1013.9
20260906012526 92 331 2.0 5.0 0.00 0.00 0.00 34 1013.9
20260906012025 93 298 2.0 9.0 0.00 0.00 0.00 33 1014.0
20260906011519 93 291 2.0 9.0 0.00 0.00 0.00 33 1014.1
20260906011013 93 296 2.0 7.0 0.00 0.00 0.00 34 1014.0
20260906010528 93 302 2.0 5.0 0.00 0.00 0.00 33 1014.0
20260906010034 94 310 2.0 11.0 0.00 0.00 0.00 33 1014.1
20260906005514 94 282 5.0 11.0 0.00 0.00 0.00 33 1014.1
20260906005028 94 6 3.0 10.0 0.00 0.00 0.00 33 1014.0
20260906004521 94 303 3.0 6.0 0.00 0.00 0.00 33 1013.9
20260906004018 94 339 3.0 8.0 0.00 0.00 0.00 33 1014.0
20260906003533 95 303 3.0 9.0 0.00 0.00 0.00 33 1013.9
20260906003026 95 311 2.0 9.0 0.00 0.00 0.00 33 1014.0
20260906002520 95 290 3.0 9.0 0.00 0.00 0.00 33 1013.9
20260906002014 95 344 2.0 7.0 0.00 0.00 0.00 33 1014.0
20260906001528 95 308 2.0 7.0 0.00 0.00 0.00 33 1013.8
20260906001023 96 344 3.0 8.0 0.00 0.00 0.00 32 1014.0
20260906000521 95 315 3.0 8.0 0.00 0.00 0.00 33 1014.0
20260906000028 96 355 2.0 10.0 0.00 0.00 0.00 33 1013.9
20260905235527 96 310 4.0 10.0 0.00 0.00 0.00 32 1013.9
20260905235021 96 289 3.0 10.0 0.00 0.00 0.00 32 1013.8
20260905234515 96 292 3.0 8.0 0.00 0.00 0.00 33 1013.9
20260905234029 96 282 4.0 8.0 0.00 0.00 0.00 32 1013.8
20260905233523 96 335 2.0 8.0 0.00 0.00 0.00 32 1013.8
20260905233018 97 311 2.0 13.0 0.00 0.00 0.00 32 1013.9
20260905232517 96 337 4.0 11.0 0.00 0.00 0.00 32 1013.9
20260905232031 96 337 2.0 10.0 0.00 0.00 0.00 31 1013.9
20260905231526 97 330 4.0 9.0 0.00 0.00 0.00 31 1013.9
20260905231020 96 331 4.0 10.0 0.00 0.00 0.00 32 1014.1
20260905230514 96 357 2.0 10.0 0.00 0.00 0.00 33 1014.1
20260905230040 97 319 2.0 10.0 0.00 0.00 0.00 32 1014.1
20260905225520 97 280 4.0 10.0 0.00 0.00 0.00 31 1014.1
20260905225019 97 336 3.0 11.0 0.00 0.00 0.00 31 1014.1
20260905224514 97 277 4.0 11.0 0.00 0.00 0.00 32 1014.0
20260905224029 96 335 4.0 7.0 0.00 0.00 0.00 31 1014.2
20260905223523 97 347 3.0 9.0 0.00 0.00 0.00 32 1014.2
20260905223018 97 354 3.0 12.0 0.00 0.00 0.00 32 1014.3
20260905222514 98 280 5.0 12.0 0.00 0.00 0.00 30 1014.2
20260905222029 98 296 3.0 10.0 0.00 0.00 0.00 30 1014.3
20260905221524 97 352 4.0 9.0 0.00 0.00 0.00 31 1014.4
20260905221024 98 298 5.0 9.0 0.00 0.00 0.00 30 1014.5
20260905220520 98 302 3.0 9.0 0.00 0.00 0.00 31 1014.4
20260905220028 98 281 4.0 10.0 0.00 0.00 0.00 31 1014.4
20260905215527 97 9 4.0 10.0 0.00 0.00 0.00 31 1014.5
20260905215023 98 307 3.0 12.0 0.00 0.00 0.00 30 1014.7
20260905214519 98 264 5.0 12.0 0.00 0.00 0.00 30 1014.7
20260905214014 97 4 3.0 10.0 0.00 0.00 0.00 32 1014.8
20260905213513 96 2 2.0 10.0 0.00 0.00 0.00 31 1014.7
20260905213027 98 342 2.0 7.0 0.00 0.00 0.00 31 1014.8
20260905212522 97 298 3.0 7.0 0.00 0.00 0.00 31 1014.8
20260905212017 97 13 3.0 7.0 0.00 0.00 0.00 30 1014.8
20260905211529 97 296 3.0 11.0 0.00 0.00 0.00 31 1014.9
20260905211024 97 284 3.0 11.0 0.00 0.00 0.00 31 1015.0
20260905210518 98 279 4.0 11.0 0.00 0.00 0.00 31 1015.1
20260905210028 96 325 3.0 11.0 0.00 0.00 0.00 31 1015.2
20260905205528 96 13 2.0 9.0 0.00 0.00 0.00 32 1015.3
20260905205022 96 308 4.0 9.0 0.00 0.00 0.00 32 1015.2
20260905204517 96 3 5.0 9.0 0.00 0.00 0.00 32 1015.3
20260905204031 95 16 4.0 9.0 0.00 0.00 0.00 32 1015.3
20260905203526 96 331 2.0 7.0 0.00 0.00 0.00 32 1015.5
20260905203020 98 306 2.0 9.0 0.00 0.00 0.00 32 1015.6
20260905202514 97 287 2.0 9.0 0.00 0.00 0.00 31 1015.8
20260905202032 96 319 3.0 7.0 0.00 0.00 0.00 32 1015.9
20260905201528 96 344 2.0 7.0 0.00 0.00 0.00 33 1015.9
20260905201022 96 260 2.0 8.0 0.00 0.00 0.00 34 1016.0
20260905200517 95 9 4.0 9.0 0.00 0.00 0.00 32 1016.0
20260905200043 96 299 3.0 9.0 0.00 0.00 0.00 33 1016.2
20260905195523 96 310 2.0 6.0 0.00 0.00 0.00 31 1016.2
20260905195017 96 347 1.0 8.0 0.00 0.00 0.00 33 1016.3
20260905194515 95 295 3.0 8.0 0.00 0.00 0.00 33 1016.4
20260905194029 96 287 2.0 8.0 0.00 0.00 0.00 33 1016.4
20260905193523 96 286 4.0 9.0 0.00 0.00 0.00 33 1016.5
20260905193017 95 7 4.0 9.0 0.00 0.00 0.00 32 1016.4
20260905192532 95 13 2.0 7.0 0.00 0.00 0.00 32 1016.5
20260905192026 95 338 2.0 6.0 0.00 0.00 0.00 33 1016.6
20260905191520 95 359 2.0 9.0 0.00 0.00 0.00 33 1016.6
20260905191015 94 258 3.0 9.0 0.00 0.00 0.00 35 1016.7
20260905190513 94 58 3.0 5.0 0.00 0.00 0.00 33 1016.8
20260905190040 94 308 1.0 3.0 0.00 0.00 0.00 34 1016.9
20260905185520 94 303 2.0 7.0 0.00 0.00 0.00 33 1017.1
20260905185014 95 300 2.0 7.0 0.00 0.00 0.00 34 1017.1
20260905184529 93 360 3.0 7.0 0.00 0.00 0.00 34 1017.1
20260905184023 94 23 2.0 7.0 0.00 0.00 0.00 34 1017.2
20260905183518 95 21 2.0 7.0 0.00 0.00 0.00 32 1017.3
20260905183016 94 299 3.0 7.0 0.00 0.00 0.00 34 1017.3
20260905182531 94 287 3.0 9.0 0.00 0.00 0.00 35 1017.3
20260905182027 93 356 4.0 10.0 0.00 0.00 0.00 35 1017.4
20260905181521 92 360 5.0 10.0 0.00 0.00 0.00 36 1017.5
20260905181018 93 305 2.0 9.0 0.00 0.00 0.00 35 1017.5
20260905180514 94 342 2.0 9.0 0.00 0.00 0.00 35 1017.5
20260905180040 94 290 2.0 8.0 0.00 0.00 0.00 36 1017.5
20260905175521 93 291 4.0 8.0 0.00 0.00 0.00 35 1017.6
20260905175020 92 355 3.0 7.0 0.00 0.00 0.00 36 1017.5
20260905174516 92 336 3.0 7.0 0.00 0.00 0.00 37 1017.5
20260905174031 94 352 2.0 7.0 0.00 0.00 0.00 36 1017.7
20260905173526 93 286 2.0 7.0 0.00 0.00 0.00 38 1017.6
20260905173022 94 334 1.0 3.0 0.00 0.00 0.00 38 1017.7
20260905172517 92 335 2.0 4.0 0.00 0.00 0.00 38 1017.6
20260905172013 92 294 1.0 8.0 0.00 0.00 0.00 41 1017.7
20260905171513 91 284 2.0 8.0 0.00 0.00 0.00 39 1017.9
20260905171029 91 2 1.0 4.0 0.00 0.00 0.00 42 1017.8
20260905170525 89 2 1.0 4.0 0.00 0.00 0.00 43 1017.8
20260905170032 90 24 2.0 4.0 0.00 0.00 0.00 44 1017.8
20260905165513 90 54 2.0 4.0 0.00 0.00 0.00 45 1018.0
20260905165028 89 55 2.0 3.0 0.00 0.00 0.00 47 1017.9
20260905164524 88 56 2.0 5.0 0.00 0.00 0.00 46 1017.9
20260905164024 87 58 2.0 5.0 0.00 0.00 0.00 47 1017.9
20260905163520 87 61 3.0 6.0 0.00 0.00 0.00 49 1017.7
20260905163014 88 62 2.0 4.0 0.00 0.00 0.00 49 1017.8
20260905162529 87 63 2.0 4.0 0.00 0.00 0.00 52 1017.8
20260905162025 87 63 2.0 3.0 0.00 0.00 0.00 52 1017.9
20260905161521 88 62 1.0 2.0 0.00 0.00 0.00 50 1017.9
20260905161017 86 63 1.0 3.0 0.00 0.00 0.00 53 1017.9
20260905160516 86 63 1.0 3.0 0.00 0.00 0.00 53 1017.9
20260905160044 85 63 1.0 3.0 0.00 0.00 0.00 53 1018.0
20260905155525 85 63 2.0 3.0 0.00 0.00 0.00 52 1018.0
20260905155021 84 63 2.0 3.0 0.00 0.00 0.00 57 1017.9
20260905154518 84 62 1.0 3.0 0.00 0.00 0.00 57 1017.9
20260905154013 84 62 1.0 3.0 0.00 0.00 0.00 59 1017.9
20260905153529 83 63 1.0 3.0 0.00 0.00 0.00 60 1017.9
20260905153024 83 62 1.0 4.0 0.00 0.00 0.00 59 1018.0
20260905152523 83 63 1.0 4.0 0.00 0.00 0.00 61 1018.0
20260905152019 82 61 2.0 3.0 0.00 0.00 0.00 61 1018.0
20260905151515 83 61 1.0 3.0 0.00 0.00 0.00 61 1018.0
20260905151031 82 61 1.0 4.0 0.00 0.00 0.00 63 1017.9
20260905150526 81 61 1.0 6.0 0.00 0.00 0.00 64 1017.9
20260905150032 80 62 2.0 4.0 0.00 0.00 0.00 64 1017.9
20260905145512 79 62 2.0 6.0 0.00 0.00 0.00 65 1017.8
20260905145031 79 61 2.0 6.0 0.00 0.00 0.00 66 1017.8
20260905144526 80 69 3.0 6.0 0.00 0.00 0.00 64 1017.8
20260905144020 79 68 2.0 6.0 0.00 0.00 0.00 67 1017.9
20260905143516 79 68 3.0 6.0 0.00 0.00 0.00 66 1017.8
20260905143012 79 68 2.0 3.0 0.00 0.00 0.00 66 1017.8
20260905142527 78 68 1.0 4.0 0.00 0.00 0.00 67 1017.7
20260905142023 78 67 2.0 5.0 0.00 0.00 0.00 68 1017.6
20260905141522 78 56 3.0 5.0 0.00 0.00 0.00 69 1017.5
20260905141017 78 55 3.0 5.0 0.00 0.00 0.00 69 1017.5
20260905140531 77 54 3.0 4.0 0.00 0.00 0.00 70 1017.3
20260905140039 77 54 2.0 3.0 0.00 0.00 0.00 69 1017.5
20260905135519 77 54 1.0 2.0 0.00 0.00 0.00 70 1017.5
20260905135014 76 54 1.0 2.0 0.00 0.00 0.00 71 1017.3
20260905134529 76 54 1.0 3.0 0.00 0.00 0.00 71 1017.2
20260905134024 76 54 1.0 3.0 0.00 0.00 0.00 71 1017.1
20260905133523 76 54 1.0 2.0 0.00 0.00 0.00 71 1017.2
20260905132514 75 54 0.0 2.0 0.00 0.00 0.00 74 1016.9
20260905132031 74 54 0.0 1.0 0.00 0.00 0.00 74 1016.9
20260905131526 74 54 0.0 2.0 0.00 0.00 0.00 75 1016.8
20260905131021 74 54 1.0 2.0 0.00 0.00 0.00 74 1016.7
20260905130518 74 54 1.0 2.0 0.00 0.00 0.00 74 1016.6
20260905130029 74 54 1.0 2.0 0.00 0.00 0.00 74 1016.6
20260905125531 74 54 1.0 2.0 0.00 0.00 0.00 73 1016.5
20260905125026 74 54 1.0 2.0 0.00 0.00 0.00 74 1016.4
20260905124521 74 54 0.0 1.0 0.00 0.00 0.00 73 1016.5
20260905124017 75 54 0.0 2.0 0.00 0.00 0.00 73 1016.4
20260905123531 74 54 1.0 2.0 0.00 0.00 0.00 74 1016.4